Weather observations for the past three days for
Pago Pago, AS, Samoa
| Date | Time (sst) | Wind (mph) | Vis. (mi.) | Weather | Sky Cond. | Temperature (ºF) | Relative Humidity | Wind Chill (°F) | Heat Index (°F) | Pressure | Precipitation (in) | ||||||
|---|---|---|---|---|---|---|---|---|---|---|---|---|---|---|---|---|---|
| Air | Dwpt | 6 hour | altimeter (in) | sea level (mb) | 1 hr | 3 hr | 6 hr | ||||||||||
| Max. | Min. | ||||||||||||||||
| 06 | 05:50 | Vrbl 7 | 10.00 | Partly Cloudy | FEW021 SCT040 SCT100 | 83.1 | 77 | 82% | 92 | 29.78 | 1008.6 | ||||||
| 06 | 04:50 | NW 9 | 10.00 | Mostly Cloudy | SCT018 SCT040 BKN100 | 82.9 | 77 | 82% | 92 | 29.78 | 1008.5 | ||||||
| 06 | 03:55 | NW 8 G 14 | 10.00 | Mostly Cloudy | SCT018 SCT040 BKN100 | 83.1 | 76.6 | 81% | 92 | 29.77 | 1008.3 | ||||||
| 06 | 02:50 | NW 10 G 17 | 10.00 | Mostly Cloudy | SCT018 BKN040 BKN100 | 83.3 | 76.8 | 81% | 92 | 29.77 | 1008.3 | ||||||
| 06 | 01:50 | NW 12 G 20 | 10.00 | Mostly Cloudy | SCT018 BKN040 BKN100 | 83.7 | 77 | 80% | 93 | 29.78 | 1008.6 | ||||||
| 06 | 00:50 | Vrbl 6 | 10.00 | Mostly Cloudy | SCT018 BKN040 BKN100 | 83.5 | 77.5 | 84 | 82.8 | 82% | 93 | 29.79 | 1009.0 | ||||
| 05 | 23:50 | Vrbl 5 | 10.00 | Mostly Cloudy | SCT018 SCT040 BKN100 BKN200 | 83.8 | 77.7 | 82% | 94 | 29.8 | 1009.3 | ||||||
| 05 | 22:50 | Vrbl 5 | 10.00 | Mostly Cloudy | SCT018 BKN040 | 83.5 | 76.6 | 80% | 93 | 29.8 | 1009.1 | ||||||
| 05 | 21:50 | NW 9 G 18 | 10.00 | Mostly Cloudy | BKN017 BKN040 | 84 | 76.5 | 78% | 93 | 29.79 | 1008.8 | ||||||
| 05 | 20:50 | Vrbl 5 | 10.00 | Thunderstorm | BKN016CB BKN040 | 83.8 | 77 | 80% | 94 | 29.79 | 1008.8 | ||||||
| 05 | 19:50 | NW 8 G 23 | 10.00 | Mostly Cloudy | SCT017 BKN040 | 82.8 | 76.3 | 81% | 91 | 29.78 | 1008.6 | ||||||
| 05 | 18:50 | Vrbl 7 | 10.00 | Partly Cloudy | SCT018 SCT220 | 83.8 | 77.2 | 88.3 | 81.9 | 80% | 94 | 29.75 | 1007.6 | 0.25 | |||
| 05 | 17:50 | Vrbl 3 G 15 | 12.00 | Partly Cloudy | SCT017 SCT220 | 83.3 | 76.6 | 80% | 92 | 29.73 | 1006.9 | ||||||
| 05 | 16:50 | Vrbl 5 | 12.00 | Mostly Cloudy | SCT015TCU BKN040 | 81.9 | 76.1 | 83% | 89 | 29.73 | 1006.9 | ||||||
| 05 | 15:50 | N 12 G 18 | 12.00 | Mostly Cloudy | BKN018TCU BKN040 | 86.4 | 77 | 74% | 98 | 29.72 | 1006.4 | ||||||
| 05 | 14:51 | N 10 | 12.00 | Mostly Cloudy | BKN017TCU BKN040 | 85.8 | 77.9 | 77% | 98 | 29.73 | 1006.9 | ||||||
| 05 | 13:55 | N 8 | 12.00 | Mostly Cloudy | SCT017TCU BKN040 | 87.8 | 77.7 | 72% | 101 | 29.74 | 1007.3 | ||||||
| 05 | 12:50 | N 8 G 14 | 12.00 | Mostly Cloudy | SCT017TCU BKN040 | 88.3 | 77.9 | 88.3 | 80.1 | 71% | 102 | 29.76 | 1007.8 | ||||
| 05 | 11:55 | N 9 | 12.00 | Mostly Cloudy | SCT018 BKN100 | 87.8 | 77.5 | 72% | 101 | 29.78 | 1008.5 | ||||||
| 05 | 10:50 | N 10 | 12.00 | Mostly Cloudy | SCT018 BKN100 BKN200 | 86.2 | 76.8 | 74% | 97 | 29.8 | 1009.3 | ||||||
| 05 | 09:54 | Vrbl 6 | 12.00 | Mostly Cloudy | SCT018TCU BKN100 BKN200 | 84.6 | 76.8 | 78% | 95 | 29.81 | 1009.7 | ||||||
| 05 | 08:55 | N 9 | 12.00 | Mostly Cloudy | SCT018 BKN100 | 84.2 | 76.3 | 77% | 93 | 29.8 | 1009.3 | ||||||
| 05 | 07:50 | Vrbl 5 | 12.00 | Partly Cloudy | FEW020 SCT100 | 83.7 | 77.2 | 81% | 93 | 29.78 | 1008.5 | ||||||
| 05 | 06:50 | Vrbl 1 | 12.00 | Mostly Cloudy | FEW015TCU BKN100 | 80.1 | 76.5 | 80.1 | 75.4 | 89% | 86 | 29.75 | 1007.6 | 0.08 | |||
| 05 | 05:50 | Vrbl 1 | 10.00 | Mostly Cloudy | SCT018TCU SCT040 BKN100 BKN200 | 79.3 | 76.3 | 90% | 84 | 29.74 | 1007.3 | ||||||
| 05 | 04:50 | Vrbl 3 | 10.00 | Mostly Cloudy | SCT018 BKN040 BKN100 | 78.8 | 76.3 | 92% | 83 | 29.75 | 1007.6 | ||||||
| 05 | 03:50 | Vrbl 3 | 10.00 | Mostly Cloudy | SCT018 BKN040 BKN100 | 78.4 | 75.9 | 92% | 82 | 29.75 | 1007.5 | ||||||
| 05 | 02:50 | Vrbl 2 | 10.00 | Mostly Cloudy | SCT018TCU BKN040 BKN100 | 78.8 | 74.7 | 87% | 82 | 29.74 | 1007.1 | ||||||
| 05 | 01:50 | Vrbl 2 | 10.00 | Mostly Cloudy | SCT018TCU BKN040 BKN100 | 79 | 74.7 | 87% | 83 | 29.74 | 1007.1 | ||||||
| 05 | 00:50 | Vrbl 2 | 10.00 | Mostly Cloudy | SCT018TCU BKN040 BKN100 | 75.4 | 73.8 | 77.4 | 75.4 | 95% | 74 | 29.75 | 1007.6 | 0.16 | |||
| 04 | 23:50 | E 8 | 8.00 | Light Showers Rain | BKN016TCU BKN035 OVC100 | 77.2 | 75.2 | 94% | 78 | 29.8 | 1009.1 | ||||||
| 04 | 22:50 | NE 9 G 22 | 5.00 | Light Showers Rain | BKN016TCU OVC035 | 76.1 | 74.3 | 94% | 76 | 29.82 | 1009.8 | ||||||
| 04 | 21:50 | Vrbl 1 | 10.00 | Overcast | SCT017 OVC038 | 77.4 | 75.9 | 95% | 79 | 29.81 | 1009.5 | 0.06 | |||||
| 04 | 20:50 | Calm | 10.00 | Overcast | SCT016 OVC035 | 77 | 75.7 | 96% | 78 | 29.81 | 1009.7 | ||||||
| 04 | 19:50 | Vrbl 2 | 8.00 | Light Showers Rain | BKN015TCU OVC035 | 77.2 | 75.7 | 95% | 78 | 29.78 | 1008.6 | ||||||
| 04 | 18:50 | Vrbl 2 | 7.00 | Light Showers Rain | FEW010 BKN015TCU OVC035 | 77.4 | 75.4 | 82.6 | 76.3 | 94% | 79 | 29.78 | 1008.5 | 1.7 | |||
| 04 | 17:50 | Vrbl 3 | 7.00 | Light Showers Rain | FEW008 BKN016TCU OVC035 | 77 | 75.4 | 95% | 78 | 29.78 | 1008.5 | ||||||
| 04 | 16:50 | Vrbl 3 | 5.00 | Light Showers Rain | FEW010 BKN017TCU OVC035 | 76.3 | 74.7 | 95% | 76 | 29.77 | 1008.1 | ||||||
| 04 | 15:50 | Vrbl 3 | 3.00 | Light Showers Rain | BKN011TCU OVC035 | 77.2 | 75.6 | 95% | 78 | 29.75 | 1007.6 | 1.24 | |||||
| 04 | 14:50 | SE 8 | 1.00 | Showers Rain | BKN012TCU OVC030 | 78.3 | 76.1 | 93% | 81 | 29.77 | 1008.1 | ||||||
| 04 | 13:50 | SE 9 | 10.00 | Overcast | BKN014TCU OVC040 | 82.2 | 77.2 | 85% | 91 | 29.77 | 1008.3 | ||||||
| 04 | 12:50 | Vrbl 6 | 10.00 | Mostly Cloudy | BKN016TCU BKN040 | 82.6 | 78.3 | 84.6 | 78.1 | 87% | 92 | 29.78 | 1008.5 | 0.35 | |||
| 04 | 11:50 | SE 8 | 10.00 | Overcast | BKN OVC100 | 82.6 | 78.3 | 87% | 92 | 29.79 | 1009.0 | ||||||
| 04 | 10:50 | SE 8 | 12.00 | Mostly Cloudy | SCT018TCU BKN040 BKN100 | 84.4 | 77 | 79% | 94 | 29.82 | 1009.8 | ||||||
| 04 | 09:50 | Vrbl 5 | 12.00 | Mostly Cloudy | SCT018TCU SCT040 BKN100 | 84.6 | 77.7 | 80% | 96 | 29.83 | 1010.3 | ||||||
| 04 | 08:50 | Calm | 12.00 | Mostly Cloudy | SCT018TCU BKN040 BKN100 | 82.4 | 78.1 | 87% | 92 | 29.83 | 1010.3 | ||||||
| 04 | 07:50 | Vrbl 3 | 10.00 | Overcast | SCT018TCU BKN040 BKN100 OVC200 | 79.5 | 77.4 | 93% | 85 | 29.83 | 1010.2 | ||||||
| 04 | 06:50 | Vrbl 1 | 10.00 | Overcast | FEW021 SCT040 OVC100 | 78.1 | 76.1 | 79 | 77.9 | 94% | 81 | 29.81 | 1009.5 | ||||
| 04 | 05:50 | Vrbl 3 | 10.00 | Overcast | FEW016 SCT040 OVC100 | 77.9 | 75.9 | 94% | 80 | 29.79 | 1008.8 | ||||||
| 04 | 04:50 | Vrbl 5 | 10.00 | Overcast | FEW019 SCT040 OVC100 | 77.9 | 75.9 | 94% | 80 | 29.78 | 1008.5 | ||||||
| 04 | 03:50 | Vrbl 2 | 10.00 | Overcast | SCT019 BKN040 OVC100 | 77.9 | 75.6 | 93% | 80 | 29.78 | 1008.6 | ||||||
| 04 | 02:50 | Vrbl 2 | 10.00 | Mostly Cloudy | SCT017TCU SCT040 BKN100 | 77.9 | 75.9 | 94% | 80 | 29.8 | 1009.3 | ||||||
| 04 | 01:50 | Vrbl 2 | 10.00 | Mostly Cloudy | SCT017TCU BKN100 | 78.8 | 77 | 94% | 83 | 29.82 | 1009.8 | ||||||
| 04 | 00:50 | Vrbl 3 | 10.00 | Mostly Cloudy | FEW023 SCT040 BKN100 | 78.8 | 76.5 | 79.2 | 77 | 93% | 83 | 29.82 | 1010.0 | ||||
| 03 | 23:50 | Vrbl 2 | 10.00 | Mostly Cloudy | FEW023 BKN040 BKN100 | 79 | 76.1 | 91% | 83 | 29.84 | 1010.5 | ||||||
| 03 | 22:50 | Vrbl 3 | 10.00 | Overcast | FEW023 BKN040 OVC100 | 78.4 | 75.6 | 91% | 82 | 29.84 | 1010.5 | ||||||
| 03 | 21:50 | Vrbl 2 | 10.00 | Overcast | FEW023 BKN038 OVC100 | 78.8 | 75.7 | 90% | 82 | 29.84 | 1010.5 | ||||||
| 03 | 20:50 | Vrbl 3 | 10.00 | Mostly Cloudy | FEW023 BKN038 BKN100 | 79 | 75.7 | 90% | 83 | 29.83 | 1010.3 | ||||||
| 03 | 19:50 | Vrbl 3 | 10.00 | Overcast | FEW023 BKN038 OVC100 | 77.4 | 74.5 | 81.5 | 77.7 | 91% | 79 | 29.8 | 1009.1 | ||||
| 03 | 18:50 | Vrbl 3 | 10.00 | Overcast | FEW023 BKN038 OVC100 | 77.4 | 74.5 | 81.5 | 77.7 | 91% | 79 | 29.8 | 1009.1 | 0.08 | |||
| 03 | 17:50 | Vrbl 2 | 12.00 | Overcast | FEW022 BKN038 OVC100 | 79.3 | 76.3 | 90% | 84 | 29.8 | 1009.1 | ||||||
| 03 | 16:50 | Vrbl 3 | 12.00 | Overcast | FEW010 SCT022 BKN040 OVC100 | 79.9 | 76.3 | 89% | 85 | 29.78 | 1008.6 | ||||||
| 03 | 15:50 | Vrbl 2 | 10.00 | Light Showers Rain | FEW008 SCT018TCU BKN038 OVC100 | 79.2 | 76.1 | 90% | 83 | 29.79 | 1008.8 | 0.08 | |||||
| 03 | 14:50 | Vrbl 3 | 10.00 | Light Showers Rain | FEW007 BKN017TCU BKN040 OVC100 | 79.5 | 76.5 | 90% | 84 | 29.79 | 1008.8 | ||||||
| 03 | 13:50 | Vrbl 3 | 10.00 | Mostly Cloudy | FEW023 SCT040 BKN100 | 78.8 | 76.5 | 79.2 | 77 | 93% | 83 | 29.82 | 1010.0 | ||||
| 03 | 12:50 | Vrbl 3 | 11.00 | Overcast | SCT015TCU BKN100 OVC200 | 80.6 | 76.6 | 84 | 78.3 | 88% | 87 | 29.82 | 1010.0 | 0.44 | |||
| 03 | 10:50 | S 9 | 12.00 | Overcast | SCT018TCU BKN100 OVC200 | 84 | 77.9 | 82% | 95 | 29.86 | 1011.3 | ||||||
| 03 | 09:55 | Vrbl 1 | 12.00 | Overcast | FEW019 BKN100 OVC200 | 82.9 | 78.6 | 87% | 93 | 29.87 | 1011.5 | ||||||
| 03 | 08:50 | Calm | 12.00 | Overcast | FEW017 BKN100 OVC200 | 79.7 | 77.4 | 93% | 85 | 29.84 | 1010.7 | ||||||
| 03 | 07:50 | Vrbl 2 | 12.00 | Overcast | FEW018 BKN100 OVC200 | 79 | 77 | 94% | 83 | 29.83 | 1010.3 | ||||||
| 03 | 06:50 | Calm | 12.00 | Mostly Cloudy | FEW018 SCT100 BKN200 | 78.3 | 76.5 | 80.2 | 77 | 94% | 81 | 29.81 | 1009.5 | ||||
| Date | Time (sst) | Wind (mph) | Vis. (mi.) | Weather | Sky Cond. | Air | Dwpt | Max. | Min. | Relative Humidity | Wind Chill (°F) | Heat Index (°F) | altimeter (in) | sea level (mb) | 1 hr | 3 hr | 6 hr |
| 6 hour | |||||||||||||||||
| Temperature (ºF) | Pressure | Precipitation (in) | |||||||||||||||